This demonstration page uses our WeatherBlox Daily Observations layout. Learn more.

Left ArrowRight Arrow

Hourly Observations for May 19, 2016

Temp ( °F °C ) Dew Point ( °F °C ) Humidity (%) Winds ( mph kmh ) Pressure ( in mb ) Visibility ( mi km ) Precip ( " mm )
12:54 am 00:54 Clear 52 11.1 48 8.9 86 86 S 7 11 30.14 1021 10 16 0.00 0.00
1:54 am 01:54 Clear 52 11.1 48 8.9 86 86 SSE 8 13 30.13 1020 10 16 0.00 0.00
2:54 am 02:54 Clear 52 11.1 47 8.3 83 83 Calm 30.12 1020 10 16 0.00 0.00
3:54 am 03:54 Clear 51 10.6 46 7.8 83 83 SE 5 7 30.11 1020 10 16 0.00 0.00
4:54 am 04:54 Clear 50 10 46 7.8 86 86 SSE 3 6 30.11 1020 10 16 0.00 0.00
5:54 am 05:54 Clear 50 10 46 7.8 86 86 Calm 30.11 1020 10 16 0.00 0.00
6:54 am 06:54 Cloudy 50 10 47 8.3 89 89 SSE 5 7 30.12 1020 9 14 0.00 0.00
7:54 am 07:54 Cloudy 54 12.2 49 9.4 83 83 SSE 5 7 30.13 1020 10 16 0.00 0.00
8:54 am 08:54 Cloudy 55 12.8 50 10 83 83 S 3 6 30.14 1021 9 14 0.00 0.00
9:54 am 09:54 Cloudy 60 15.6 50 10 70 70 S 6 9 30.12 1020 10 16 0.00 0.00
10:54 am 10:54 Cloudy 62 16.7 49 9.4 62 62 S 8 13 30.11 1020 10 16 0.00 0.00
11:54 am 11:54 Cloudy 66 18.9 46 7.8 49 49 S 14 22 30.09 1019 10 16 0.00 0.00
12:54 pm 12:54 Cloudy 68 20 44 6.7 42 42 S 16 26 30.08 1019 10 16 0.00 0.00
1:54 pm 13:54 Cloudy 66 18.9 44 6.7 45 45 SSE 13 20 30.07 1018 10 16 0.00 0.00
2:54 pm 14:54 Mostly Cloudy 70 21.1 45 7.2 41 41 S 14 22 30.05 1018 10 16 0.00 0.00
3:54 pm 15:54 Cloudy 67 19.4 44 6.7 44 44 SSE 17 28 30.03 1017 10 16 0.00 0.00
4:54 pm 16:54 Cloudy 68 20 44 6.7 42 42 SSE 10 17 30.01 1016 10 16 0.00 0.00
5:54 pm 17:54 Cloudy 66 19 43 6 43 43 SSE 15 24 30.00 1016 10 16 0.00 0.00
6:54 pm 18:54 Partly Cloudy 68 20 42 5.6 39 39 SSE 15 24 29.99 1016 10 16 0.00 0.00
7:54 pm 19:54 Sunny 64 17.8 43 6.1 46 46 S 15 24 29.99 1016 10 16 0.00 0.00
8:54 pm 20:54 Clear 61 16.1 43 6.1 52 52 SSE 9 15 30.00 1016 10 16 0.00 0.00
9:54 pm 21:54 Clear 56 13.3 46 7.8 70 70 S 10 17 30.04 1017 10 16 0.00 0.00
10:54 pm 22:54 Mostly Cloudy 54 12.2 47 8.3 77 77 S 7 11 30.04 1017 10 16 0.00 0.00
11:54 pm 23:54 Cloudy 54 12.2 47 8.3 77 77 S 6 9 30.04 1017 10 16 0.00 0.00

Powered by AerisWeather